Location: Gisborne
(38.6530°S, 178.0040°E)
Time: 11:15:08
(UTC+13:00)

ERS-1 Rocket - Pass Details

Date: 24 January 2019
Orbit: 754 x 757 km, 98.5° (Epoch: 14 February)

Event Time Altitude Azimuth Distance (km) Brightness Sun altitude
Rises 22:37:23 0° 157° (SSE) 3,245 6.6 -20.7°
Reaches altitude 10° 22:39:56 10° 146° (SSE) 2,311 5.7 -21.0°
Enters shadow 22:44:02 32° 94° (E) 1,297 3.9 -21.6°
